Time,TemperatureF,DewpointF,PressureIn,WindDirection,WindDirectionDegrees,WindSpeedMPH,WindSpeedGustMPH,Humidity,HourlyPrecipIn,Conditions,Clouds,dailyrainin,SoftwareType,DateUTC
2013-08-28 00:00:00,67.0,58.0,30.14,West,270,2.0,7.0,73,0.00,,,0.00,Weather View 32 v70,2013-08-28 06:00:00,
2013-08-28 00:05:00,67.0,58.0,30.14,West,270,0.0,7.0,73,0.00,,,0.00,Weather View 32 v70,2013-08-28 06:05:00,
2013-08-28 00:10:00,67.0,58.4,30.14,West,270,3.0,7.0,74,0.00,,,0.00,Weather View 32 v70,2013-08-28 06:10:00,
2013-08-28 00:15:00,67.0,58.8,30.14,WSW,247,3.0,7.0,75,0.00,,,0.00,Weather View 32 v70,2013-08-28 06:15:00,
2013-08-28 00:20:00,67.0,58.8,30.14,West,270,4.0,6.0,75,0.00,,,0.00,Weather View 32 v70,2013-08-28 06:20:00,
2013-08-28 00:25:00,67.0,58.8,30.14,West,270,3.0,6.0,75,0.00,,,0.00,Weather View 32 v70,2013-08-28 06:25:00,
2013-08-28 00:30:00,67.0,58.8,30.14,West,270,5.0,6.0,75,0.00,,,0.00,Weather View 32 v70,2013-08-28 06:30:00,
2013-08-28 00:35:00,67.0,58.4,30.14,West,270,3.0,9.0,74,0.00,,,0.00,Weather View 32 v70,2013-08-28 06:35:00,
2013-08-28 00:40:00,67.0,58.0,30.14,West,270,1.0,9.0,73,0.00,,,0.00,Weather View 32 v70,2013-08-28 06:40:00,
2013-08-28 00:45:00,67.0,58.0,30.14,West,270,3.0,9.0,73,0.00,,,0.00,Weather View 32 v70,2013-08-28 06:45:00,
2013-08-28 00:50:00,67.0,58.4,30.14,West,270,7.0,9.0,74,0.00,,,0.00,Weather View 32 v70,2013-08-28 06:50:00,
2013-08-28 00:55:00,67.0,58.8,30.14,WSW,247,4.0,9.0,75,0.00,,,0.00,Weather View 32 v70,2013-08-28 06:55:00,
2013-08-28 01:00:00,66.0,58.2,30.14,West,270,5.0,9.0,76,0.00,,,0.00,Weather View 32 v70,2013-08-28 07:00:00,
2013-08-28 01:05:00,66.0,58.6,30.14,West,270,3.0,9.0,77,0.00,,,0.00,Weather View 32 v70,2013-08-28 07:05:00,
2013-08-28 01:10:00,66.0,58.6,30.14,West,270,7.0,9.0,77,0.00,,,0.00,Weather View 32 v70,2013-08-28 07:10:00,
2013-08-28 01:15:00,66.0,59.3,30.14,WSW,247,5.0,9.0,79,0.00,,,0.00,Weather View 32 v70,2013-08-28 07:15:00,
2013-08-28 01:20:00,66.0,59.3,30.14,West,270,2.0,9.0,79,0.00,,,0.00,Weather View 32 v70,2013-08-28 07:20:00,
2013-08-28 01:25:00,66.0,59.6,30.14,West,270,3.0,9.0,80,0.00,,,0.00,Weather View 32 v70,2013-08-28 07:25:00,
2013-08-28 01:30:00,66.0,60.0,30.15,West,270,2.0,9.0,81,0.00,,,0.00,Weather View 32 v70,2013-08-28 07:30:00,
2013-08-28 01:35:00,66.0,60.0,30.15,West,270,3.0,8.0,81,0.00,,,0.00,Weather View 32 v70,2013-08-28 07:35:00,
2013-08-28 01:40:00,66.0,60.3,30.15,WSW,247,4.0,8.0,82,0.00,,,0.00,Weather View 32 v70,2013-08-28 07:40:00,
2013-08-28 01:45:00,65.0,59.4,30.15,West,270,4.0,8.0,82,0.00,,,0.00,Weather View 32 v70,2013-08-28 07:45:00,
2013-08-28 01:50:00,65.0,59.0,30.15,West,270,0.0,8.0,81,0.00,,,0.00,Weather View 32 v70,2013-08-28 07:50:00,
2013-08-28 01:55:00,65.0,59.0,30.15,West,270,3.0,8.0,81,0.00,,,0.00,Weather View 32 v70,2013-08-28 07:55:00,
2013-08-28 02:00:00,65.0,59.0,30.14,West,270,3.0,8.0,81,0.00,,,0.00,Weather View 32 v70,2013-08-28 08:00:00,
2013-08-28 02:05:00,65.0,59.0,30.14,West,270,2.0,8.0,81,0.00,,,0.00,Weather View 32 v70,2013-08-28 08:05:00,
2013-08-28 02:10:00,65.0,59.0,30.14,West,270,3.0,8.0,81,0.00,,,0.00,Weather View 32 v70,2013-08-28 08:10:00,
2013-08-28 02:15:00,65.0,59.0,30.14,West,270,2.0,8.0,81,0.00,,,0.00,Weather View 32 v70,2013-08-28 08:15:00,
2013-08-28 02:20:00,65.0,59.0,30.15,West,270,1.0,8.0,81,0.00,,,0.00,Weather View 32 v70,2013-08-28 08:20:00,
2013-08-28 02:25:00,65.0,59.4,30.15,West,270,3.0,8.0,82,0.00,,,0.00,Weather View 32 v70,2013-08-28 08:25:00,
2013-08-28 02:30:00,65.0,59.4,30.15,West,270,1.0,8.0,82,0.00,,,0.00,Weather View 32 v70,2013-08-28 08:30:00,
2013-08-28 02:35:00,64.0,58.7,30.15,West,270,0.0,8.0,83,0.00,,,0.00,Weather View 32 v70,2013-08-28 08:35:00,
2013-08-28 02:40:00,64.0,58.7,30.15,West,270,0.0,6.0,83,0.00,,,0.00,Weather View 32 v70,2013-08-28 08:40:00,
2013-08-28 02:45:00,64.0,59.1,30.15,West,270,2.0,6.0,84,0.00,,,0.00,Weather View 32 v70,2013-08-28 08:45:00,
2013-08-28 02:50:00,64.0,59.1,30.16,West,270,1.0,6.0,84,0.00,,,0.00,Weather View 32 v70,2013-08-28 08:50:00,
2013-08-28 02:55:00,64.0,58.7,30.16,West,270,1.0,6.0,83,0.00,,,0.00,Weather View 32 v70,2013-08-28 08:55:00,
2013-08-28 03:00:00,64.0,58.7,30.16,West,270,3.0,5.0,83,0.00,,,0.00,Weather View 32 v70,2013-08-28 09:00:00,
2013-08-28 03:05:00,64.0,59.7,30.16,West,270,0.0,5.0,86,0.00,,,0.00,Weather View 32 v70,2013-08-28 09:05:00,
2013-08-28 03:10:00,64.0,60.0,30.15,West,270,0.0,5.0,87,0.00,,,0.00,Weather View 32 v70,2013-08-28 09:10:00,
2013-08-28 03:15:00,64.0,60.0,30.15,West,270,0.0,5.0,87,0.00,,,0.00,Weather View 32 v70,2013-08-28 09:15:00,
2013-08-28 03:20:00,64.0,60.0,30.15,West,270,0.0,4.0,87,0.00,,,0.00,Weather View 32 v70,2013-08-28 09:20:00,
2013-08-28 03:26:00,64.0,59.7,30.15,West,270,0.0,4.0,86,0.00,,,0.00,Weather View 32 v70,2013-08-28 09:26:00,
2013-08-28 03:31:00,64.0,59.7,30.15,West,270,2.0,4.0,86,0.00,,,0.00,Weather View 32 v70,2013-08-28 09:31:00,
2013-08-28 03:33:00,64.0,59.7,30.15,West,270,3.0,4.0,86,0.00,,,0.00,Weather View 32 v70,2013-08-28 09:33:00,
2013-08-28 03:38:00,63.0,58.7,30.15,West,270,3.0,4.0,86,0.00,,,0.00,Weather View 32 v70,2013-08-28 09:38:00,
2013-08-28 03:43:00,63.0,59.4,30.15,West,270,1.0,4.0,88,0.00,,,0.00,Weather View 32 v70,2013-08-28 09:43:00,
2013-08-28 03:48:00,63.0,59.1,30.15,West,270,3.0,4.0,87,0.00,,,0.00,Weather View 32 v70,2013-08-28 09:48:00,
2013-08-28 03:53:00,63.0,58.7,30.15,West,270,1.0,4.0,86,0.00,,,0.00,Weather View 32 v70,2013-08-28 09:53:00,
2013-08-28 03:58:00,63.0,58.7,30.15,West,270,2.0,4.0,86,0.00,,,0.00,Weather View 32 v70,2013-08-28 09:58:00,
2013-08-28 04:04:00,63.0,59.1,30.15,West,270,3.0,4.0,87,0.00,,,0.00,Weather View 32 v70,2013-08-28 10:04:00,
2013-08-28 04:09:00,63.0,59.1,30.16,West,270,3.0,4.0,87,0.00,,,0.00,Weather View 32 v70,2013-08-28 10:09:00,
2013-08-28 04:14:00,63.0,59.4,30.16,West,270,2.0,4.0,88,0.00,,,0.00,Weather View 32 v70,2013-08-28 10:14:00,
2013-08-28 04:19:00,63.0,59.4,30.16,West,270,0.0,4.0,88,0.00,,,0.00,Weather View 32 v70,2013-08-28 10:19:00,
2013-08-28 04:24:00,63.0,59.1,30.16,North,360,3.0,5.0,87,0.00,,,0.00,Weather View 32 v70,2013-08-28 10:24:00,
2013-08-28 04:29:00,63.0,58.7,30.15,North,360,0.0,5.0,86,0.00,,,0.00,Weather View 32 v70,2013-08-28 10:29:00,
2013-08-28 04:34:00,63.0,59.4,30.15,North,360,0.0,5.0,88,0.00,,,0.00,Weather View 32 v70,2013-08-28 10:34:00,
2013-08-28 04:39:00,63.0,60.3,30.16,North,360,0.0,5.0,91,0.00,,,0.00,Weather View 32 v70,2013-08-28 10:39:00,
2013-08-28 04:44:00,62.0,60.2,30.16,North,360,0.0,5.0,94,0.00,,,0.00,Weather View 32 v70,2013-08-28 10:44:00,
2013-08-28 04:49:00,62.0,60.8,30.16,North,360,0.0,5.0,96,0.00,,,0.00,Weather View 32 v70,2013-08-28 10:49:00,
2013-08-28 04:54:00,62.0,61.1,30.16,North,360,0.0,5.0,97,0.00,,,0.00,Weather View 32 v70,2013-08-28 10:54:00,
2013-08-28 04:59:00,62.0,61.7,30.16,North,360,0.0,5.0,99,0.00,,,0.00,Weather View 32 v70,2013-08-28 10:59:00,
2013-08-28 05:04:00,62.0,62.0,30.16,North,360,0.0,5.0,100,0.00,,,0.00,Weather View 32 v70,2013-08-28 11:04:00,
2013-08-28 05:09:00,62.0,62.0,30.16,North,360,0.0,5.0,100,0.00,,,0.00,Weather View 32 v70,2013-08-28 11:09:00,
2013-08-28 05:14:00,62.0,62.0,30.16,North,360,0.0,5.0,100,0.00,,,0.00,Weather View 32 v70,2013-08-28 11:14:00,
2013-08-28 05:19:00,61.0,61.0,30.16,North,360,0.0,5.0,100,0.00,,,0.00,Weather View 32 v70,2013-08-28 11:19:00,
2013-08-28 05:24:00,61.0,61.0,30.16,North,360,0.0,4.0,100,0.00,,,0.00,Weather View 32 v70,2013-08-28 11:24:00,
2013-08-28 05:29:00,61.0,61.0,30.16,North,360,0.0,2.0,100,0.00,,,0.00,Weather View 32 v70,2013-08-28 11:29:00,
2013-08-28 05:34:00,61.0,61.0,30.16,North,360,0.0,2.0,100,0.00,,,0.00,Weather View 32 v70,2013-08-28 11:34:00,
2013-08-28 05:39:00,61.0,61.0,30.16,North,360,0.0,2.0,100,0.00,,,0.00,Weather View 32 v70,2013-08-28 11:39:00,
2013-08-28 05:44:00,61.0,61.0,30.16,North,360,0.0,2.0,100,0.00,,,0.00,Weather View 32 v70,2013-08-28 11:44:00,
2013-08-28 05:49:00,61.0,61.0,30.17,North,360,0.0,2.0,100,0.00,,,0.00,Weather View 32 v70,2013-08-28 11:49:00,
2013-08-28 05:54:00,61.0,61.0,30.17,North,360,0.0,2.0,100,0.00,,,0.00,Weather View 32 v70,2013-08-28 11:54:00,
2013-08-28 05:59:00,61.0,61.0,30.16,North,360,0.0,2.0,100,0.00,,,0.00,Weather View 32 v70,2013-08-28 11:59:00,
2013-08-28 06:04:00,60.0,60.0,30.16,North,360,0.0,1.0,100,0.00,,,0.00,Weather View 32 v70,2013-08-28 12:04:00,
2013-08-28 06:09:00,60.0,60.0,30.17,North,360,0.0,1.0,100,0.00,,,0.00,Weather View 32 v70,2013-08-28 12:09:00,
2013-08-28 06:14:00,60.0,60.0,30.17,North,360,0.0,1.0,100,0.00,,,0.00,Weather View 32 v70,2013-08-28 12:14:00,
2013-08-28 06:19:00,60.0,60.0,30.17,NE,45,3.0,3.0,100,0.00,,,0.00,Weather View 32 v70,2013-08-28 12:19:00,
2013-08-28 06:24:00,60.0,60.0,30.17,ENE,67,3.0,6.0,100,0.00,,,0.00,Weather View 32 v70,2013-08-28 12:24:00,
2013-08-28 06:29:00,60.0,60.0,30.18,ENE,67,3.0,6.0,100,0.00,,,0.00,Weather View 32 v70,2013-08-28 12:29:00,
2013-08-28 06:34:00,60.0,60.0,30.18,ENE,67,3.0,6.0,100,0.00,,,0.00,Weather View 32 v70,2013-08-28 12:34:00,
2013-08-28 06:39:00,60.0,60.0,30.18,ENE,67,3.0,6.0,100,0.00,,,0.00,Weather View 32 v70,2013-08-28 12:39:00,
2013-08-28 06:44:00,60.0,60.0,30.18,ENE,67,2.0,6.0,100,0.00,,,0.00,Weather View 32 v70,2013-08-28 12:44:00,
2013-08-28 06:49:00,60.0,60.0,30.18,ENE,67,3.0,6.0,100,0.00,,,0.00,Weather View 32 v70,2013-08-28 12:49:00,
2013-08-28 06:54:00,60.0,60.0,30.18,ENE,67,1.0,6.0,100,0.00,,,0.00,Weather View 32 v70,2013-08-28 12:54:00,
2013-08-28 06:59:00,60.0,60.0,30.19,ENE,67,3.0,6.0,100,0.00,,,0.00,Weather View 32 v70,2013-08-28 12:59:00,
2013-08-28 07:04:00,60.0,60.0,30.19,ENE,67,4.0,6.0,100,0.00,,,0.00,Weather View 32 v70,2013-08-28 13:04:00,
2013-08-28 07:09:00,60.0,60.0,30.19,ENE,67,5.0,6.0,100,0.00,,,0.00,Weather View 32 v70,2013-08-28 13:09:00,
2013-08-28 07:14:00,61.0,61.0,30.19,ENE,67,4.0,6.0,100,0.00,,,0.00,Weather View 32 v70,2013-08-28 13:14:00,
2013-08-28 07:19:00,61.0,61.0,30.18,ENE,67,4.0,6.0,100,0.00,,,0.00,Weather View 32 v70,2013-08-28 13:19:00,
2013-08-28 07:24:00,61.0,60.7,30.18,East,90,3.0,6.0,99,0.00,,,0.00,Weather View 32 v70,2013-08-28 13:24:00,
2013-08-28 07:29:00,62.0,60.2,30.19,East,90,4.0,6.0,94,0.00,,,0.00,Weather View 32 v70,2013-08-28 13:29:00,
2013-08-28 07:34:00,62.0,58.7,30.19,East,90,4.0,7.0,89,0.00,,,0.00,Weather View 32 v70,2013-08-28 13:34:00,
2013-08-28 07:39:00,63.0,59.4,30.20,East,90,3.0,7.0,88,0.00,,,0.00,Weather View 32 v70,2013-08-28 13:39:00,
2013-08-28 07:44:00,63.0,58.4,30.20,East,90,3.0,7.0,85,0.00,,,0.00,Weather View 32 v70,2013-08-28 13:44:00,
2013-08-28 07:49:00,64.0,58.0,30.19,East,90,7.0,7.0,81,0.00,,,0.00,Weather View 32 v70,2013-08-28 13:49:00,
2013-08-28 07:54:00,65.0,58.3,30.19,East,90,5.0,7.0,79,0.00,,,0.00,Weather View 32 v70,2013-08-28 13:54:00,
2013-08-28 07:59:00,65.0,57.6,30.19,East,90,4.0,7.0,77,0.00,,,0.00,Weather View 32 v70,2013-08-28 13:59:00,
2013-08-28 08:04:00,66.0,57.1,30.19,East,90,4.0,7.0,73,0.00,,,0.00,Weather View 32 v70,2013-08-28 14:04:00,
2013-08-28 08:09:00,66.0,56.7,30.20,East,90,5.0,7.0,72,0.00,,,0.00,Weather View 32 v70,2013-08-28 14:09:00,
2013-08-28 08:14:00,67.0,57.6,30.20,East,90,4.0,7.0,72,0.00,,,0.00,Weather View 32 v70,2013-08-28 14:14:00,
2013-08-28 08:19:00,67.0,56.9,30.19,East,90,6.0,7.0,70,0.00,,,0.00,Weather View 32 v70,2013-08-28 14:19:00,
2013-08-28 08:24:00,67.0,56.9,30.19,East,90,6.0,7.0,70,0.00,,,0.00,Weather View 32 v70,2013-08-28 14:24:00,
2013-08-28 08:29:00,68.0,57.0,30.19,East,90,4.0,7.0,68,0.00,,,0.00,Weather View 32 v70,2013-08-28 14:29:00,
2013-08-28 08:34:00,68.0,56.2,30.19,East,90,2.0,7.0,66,0.00,,,0.00,Weather View 32 v70,2013-08-28 14:34:00,
2013-08-28 08:39:00,69.0,56.3,30.19,East,90,5.0,8.0,64,0.00,,,0.00,Weather View 32 v70,2013-08-28 14:39:00,
2013-08-28 08:44:00,70.0,56.8,30.19,East,90,5.0,8.0,63,0.00,,,0.00,Weather View 32 v70,2013-08-28 14:44:00,
2013-08-28 08:49:00,70.0,55.9,30.19,East,90,3.0,8.0,61,0.00,,,0.00,Weather View 32 v70,2013-08-28 14:49:00,
2013-08-28 08:54:00,71.0,56.4,30.19,ESE,112,6.0,8.0,60,0.00,,,0.00,Weather View 32 v70,2013-08-28 14:54:00,
2013-08-28 08:59:00,72.0,57.3,30.19,SSE,157,5.0,8.0,60,0.00,,,0.00,Weather View 32 v70,2013-08-28 14:59:00,
2013-08-28 09:04:00,72.0,56.8,30.19,South,180,4.0,8.0,59,0.00,,,0.00,Weather View 32 v70,2013-08-28 15:04:00,
2013-08-28 09:09:00,72.0,56.4,30.18,South,180,5.0,8.0,58,0.00,,,0.00,Weather View 32 v70,2013-08-28 15:09:00,
2013-08-28 09:14:00,73.0,56.3,30.18,SE,135,4.0,8.0,56,0.00,,,0.00,Weather View 32 v70,2013-08-28 15:14:00,
2013-08-28 09:19:00,74.0,55.7,30.18,SE,135,3.0,8.0,53,0.00,,,0.00,Weather View 32 v70,2013-08-28 15:19:00,
2013-08-28 09:24:00,74.0,56.2,30.18,East,90,3.0,8.0,54,0.00,,,0.00,Weather View 32 v70,2013-08-28 15:24:00,
2013-08-28 09:29:00,75.0,56.7,30.18,SSE,157,4.0,8.0,53,0.00,,,0.00,Weather View 32 v70,2013-08-28 15:29:00,
2013-08-28 09:34:00,75.0,56.1,30.18,South,180,3.0,8.0,52,0.00,,,0.00,Weather View 32 v70,2013-08-28 15:34:00,
2013-08-28 09:39:00,76.0,56.0,30.18,South,180,7.0,8.0,50,0.00,,,0.00,Weather View 32 v70,2013-08-28 15:39:00,
2013-08-28 09:44:00,76.0,56.0,30.18,East,90,5.0,8.0,50,0.00,,,0.00,Weather View 32 v70,2013-08-28 15:44:00,
2013-08-28 09:49:00,76.0,56.0,30.18,SE,135,3.0,8.0,50,0.00,,,0.00,Weather View 32 v70,2013-08-28 15:49:00,
2013-08-28 09:54:00,77.0,56.9,30.18,ESE,112,4.0,8.0,50,0.00,,,0.00,Weather View 32 v70,2013-08-28 15:54:00,
2013-08-28 09:59:00,77.0,55.7,30.18,SE,135,2.0,8.0,48,0.00,,,0.00,Weather View 32 v70,2013-08-28 15:59:00,
2013-08-28 10:04:00,77.0,55.2,30.18,SSW,202,3.0,8.0,47,0.00,,,0.00,Weather View 32 v70,2013-08-28 16:04:00,
2013-08-28 10:09:00,77.0,55.2,30.18,SSE,157,6.0,8.0,47,0.00,,,0.00,Weather View 32 v70,2013-08-28 16:09:00,
2013-08-28 10:14:00,78.0,55.5,30.18,SSW,202,3.0,8.0,46,0.00,,,0.00,Weather View 32 v70,2013-08-28 16:14:00,
2013-08-28 10:19:00,78.0,55.5,30.18,East,90,1.0,10.0,46,0.00,,,0.00,Weather View 32 v70,2013-08-28 16:19:00,
2013-08-28 10:24:00,78.0,55.5,30.18,ESE,112,5.0,10.0,46,0.00,,,0.00,Weather View 32 v70,2013-08-28 16:24:00,
2013-08-28 10:29:00,78.0,55.5,30.18,South,180,5.0,10.0,46,0.00,,,0.00,Weather View 32 v70,2013-08-28 16:29:00,
2013-08-28 10:34:00,78.0,54.9,30.18,SE,135,6.0,10.0,45,0.00,,,0.00,Weather View 32 v70,2013-08-28 16:34:00,
2013-08-28 10:39:00,79.0,56.4,30.18,East,90,6.0,10.0,46,0.00,,,0.00,Weather View 32 v70,2013-08-28 16:39:00,
2013-08-28 10:44:00,79.0,56.4,30.18,South,180,1.0,10.0,46,0.00,,,0.00,Weather View 32 v70,2013-08-28 16:44:00,
2013-08-28 10:49:00,79.0,56.4,30.17,South,180,9.0,10.0,46,0.00,,,0.00,Weather View 32 v70,2013-08-28 16:49:00,
2013-08-28 10:54:00,79.0,56.4,30.17,South,180,4.0,10.0,46,0.00,,,0.00,Weather View 32 v70,2013-08-28 16:54:00,
2013-08-28 10:59:00,79.0,55.2,30.17,East,90,4.0,10.0,44,0.00,,,0.00,Weather View 32 v70,2013-08-28 16:59:00,
2013-08-28 11:04:00,79.0,54.5,30.17,South,180,2.0,10.0,43,0.00,,,0.00,Weather View 32 v70,2013-08-28 17:04:00,
2013-08-28 11:09:00,80.0,54.8,30.17,SE,135,1.0,10.0,42,0.00,,,0.00,Weather View 32 v70,2013-08-28 17:09:00,
2013-08-28 11:14:00,80.0,54.8,30.17,SE,135,5.0,10.0,42,0.00,,,0.00,Weather View 32 v70,2013-08-28 17:14:00,
2013-08-28 11:19:00,81.0,55.0,30.16,SSW,202,4.0,10.0,41,0.00,,,0.00,Weather View 32 v70,2013-08-28 17:19:00,
2013-08-28 11:24:00,81.0,54.3,30.16,SSW,202,1.0,10.0,40,0.00,,,0.00,Weather View 32 v70,2013-08-28 17:24:00,
2013-08-28 11:29:00,82.0,54.5,30.16,SE,135,1.0,10.0,39,0.00,,,0.00,Weather View 32 v70,2013-08-28 17:29:00,
2013-08-28 11:34:00,82.0,55.2,30.16,SE,135,1.0,10.0,40,0.00,,,0.00,Weather View 32 v70,2013-08-28 17:34:00,
2013-08-28 11:39:00,83.0,55.4,30.16,NW,315,3.0,10.0,39,0.00,,,0.00,Weather View 32 v70,2013-08-28 17:39:00,
2013-08-28 11:44:00,83.0,56.8,30.16,WNW,292,4.0,10.0,41,0.00,,,0.00,Weather View 32 v70,2013-08-28 17:44:00,
2013-08-28 11:49:00,83.0,56.1,30.15,NW,315,5.0,10.0,40,0.00,,,0.00,Weather View 32 v70,2013-08-28 17:49:00,
2013-08-28 11:54:00,83.0,56.8,30.15,WNW,292,1.0,9.0,41,0.00,,,0.00,Weather View 32 v70,2013-08-28 17:54:00,
2013-08-28 11:59:00,83.0,58.1,30.15,West,270,7.0,9.0,43,0.00,,,0.00,Weather View 32 v70,2013-08-28 17:59:00,
2013-08-28 12:04:00,84.0,56.3,30.15,West,270,1.0,9.0,39,0.00,,,0.00,Weather View 32 v70,2013-08-28 18:04:00,
2013-08-28 12:09:00,84.0,54.8,30.14,West,270,5.0,9.0,37,0.00,,,0.00,Weather View 32 v70,2013-08-28 18:09:00,
2013-08-28 12:14:00,85.0,56.5,30.14,South,180,7.0,11.0,38,0.00,,,0.00,Weather View 32 v70,2013-08-28 18:14:00,
2013-08-28 12:19:00,85.0,55.7,30.14,West,270,2.0,11.0,37,0.00,,,0.00,Weather View 32 v70,2013-08-28 18:19:00,
2013-08-28 12:24:00,85.0,54.2,30.14,West,270,0.0,11.0,35,0.00,,,0.00,Weather View 32 v70,2013-08-28 18:24:00,
2013-08-28 12:29:00,86.0,53.4,30.14,SW,225,9.0,11.0,33,0.00,,,0.00,Weather View 32 v70,2013-08-28 18:29:00,
2013-08-28 12:34:00,86.0,57.3,30.14,West,270,6.0,11.0,38,0.00,,,0.00,Weather View 32 v70,2013-08-28 18:34:00,
2013-08-28 12:39:00,86.0,55.1,30.14,SW,225,4.0,11.0,35,0.00,,,0.00,Weather View 32 v70,2013-08-28 18:39:00,
2013-08-28 12:44:00,86.0,55.1,30.14,NW,315,6.0,11.0,35,0.00,,,0.00,Weather View 32 v70,2013-08-28 18:44:00,
2013-08-28 12:49:00,86.0,53.4,30.13,WSW,247,6.0,11.0,33,0.00,,,0.00,Weather View 32 v70,2013-08-28 18:49:00,
2013-08-28 12:54:00,86.0,55.8,30.13,West,270,3.0,11.0,36,0.00,,,0.00,Weather View 32 v70,2013-08-28 18:54:00,
2013-08-28 12:59:00,86.0,53.4,30.13,NW,315,4.0,11.0,33,0.00,,,0.00,Weather View 32 v70,2013-08-28 18:59:00,
2013-08-28 13:04:00,85.0,54.2,30.13,SE,135,5.0,11.0,35,0.00,,,0.00,Weather View 32 v70,2013-08-28 19:04:00,
2013-08-28 13:09:00,85.0,54.2,30.13,NW,315,7.0,11.0,35,0.00,,,0.00,Weather View 32 v70,2013-08-28 19:09:00,
2013-08-28 13:14:00,85.0,54.2,30.13,West,270,7.0,11.0,35,0.00,,,0.00,Weather View 32 v70,2013-08-28 19:14:00,
2013-08-28 13:19:00,85.0,54.2,30.13,West,270,4.0,12.0,35,0.00,,,0.00,Weather View 32 v70,2013-08-28 19:19:00,
2013-08-28 13:24:00,85.0,53.4,30.13,West,270,6.0,12.0,34,0.00,,,0.00,Weather View 32 v70,2013-08-28 19:24:00,
2013-08-28 13:29:00,86.0,53.4,30.12,West,270,3.0,12.0,33,0.00,,,0.00,Weather View 32 v70,2013-08-28 19:29:00,
2013-08-28 13:34:00,86.0,50.9,30.12,West,270,2.0,12.0,30,0.00,,,0.00,Weather View 32 v70,2013-08-28 19:34:00,
2013-08-28 13:39:00,86.0,52.6,30.12,West,270,3.0,12.0,32,0.00,,,0.00,Weather View 32 v70,2013-08-28 19:39:00,
2013-08-28 13:44:00,86.0,52.6,30.12,West,270,4.0,12.0,32,0.00,,,0.00,Weather View 32 v70,2013-08-28 19:44:00,
2013-08-28 13:49:00,86.0,50.9,30.12,NW,315,6.0,12.0,30,0.00,,,0.00,Weather View 32 v70,2013-08-28 19:49:00,
2013-08-28 13:54:00,86.0,51.7,30.12,West,270,4.0,12.0,31,0.00,,,0.00,Weather View 32 v70,2013-08-28 19:54:00,
2013-08-28 13:59:00,87.0,50.8,30.11,WSW,247,6.0,12.0,29,0.00,,,0.00,Weather View 32 v70,2013-08-28 19:59:00,
2013-08-28 14:04:00,87.0,50.8,30.11,West,270,7.0,12.0,29,0.00,,,0.00,Weather View 32 v70,2013-08-28 20:04:00,
2013-08-28 14:09:00,87.0,51.7,30.10,SSW,202,5.0,12.0,30,0.00,,,0.00,Weather View 32 v70,2013-08-28 20:09:00,
2013-08-28 14:14:00,87.0,50.8,30.10,WSW,247,4.0,12.0,29,0.00,,,0.00,Weather View 32 v70,2013-08-28 20:14:00,
2013-08-28 14:19:00,87.0,50.8,30.09,SW,225,9.0,11.0,29,0.00,,,0.00,Weather View 32 v70,2013-08-28 20:19:00,
2013-08-28 14:24:00,88.0,49.7,30.09,SW,225,5.0,13.0,27,0.00,,,0.00,Weather View 32 v70,2013-08-28 20:24:00,
2013-08-28 14:29:00,88.0,50.7,30.09,North,360,7.0,13.0,28,0.00,,,0.00,Weather View 32 v70,2013-08-28 20:29:00,
2013-08-28 14:34:00,87.0,48.9,30.09,North,360,3.0,13.0,27,0.00,,,0.00,Weather View 32 v70,2013-08-28 20:34:00,
2013-08-28 14:39:00,88.0,52.6,30.08,SW,225,9.0,13.0,30,0.00,,,0.00,Weather View 32 v70,2013-08-28 20:39:00,
2013-08-28 14:44:00,88.0,51.6,30.08,West,270,10.0,13.0,29,0.00,,,0.00,Weather View 32 v70,2013-08-28 20:44:00,
2013-08-28 14:49:00,88.0,50.7,30.08,NW,315,6.0,13.0,28,0.00,,,0.00,Weather View 32 v70,2013-08-28 20:49:00,
2013-08-28 14:54:00,88.0,50.7,30.08,NW,315,5.0,13.0,28,0.00,,,0.00,Weather View 32 v70,2013-08-28 20:54:00,
2013-08-28 14:59:00,88.0,48.7,30.08,SW,225,10.0,13.0,26,0.00,,,0.00,Weather View 32 v70,2013-08-28 20:59:00,
2013-08-28 15:04:00,88.0,51.6,30.08,West,270,5.0,13.0,29,0.00,,,0.00,Weather View 32 v70,2013-08-28 21:04:00,
2013-08-28 15:09:00,88.0,48.7,30.07,West,270,4.0,14.0,26,0.00,,,0.00,Weather View 32 v70,2013-08-28 21:09:00,
2013-08-28 15:14:00,89.0,48.5,30.07,SW,225,5.0,14.0,25,0.00,,,0.00,Weather View 32 v70,2013-08-28 21:14:00,
2013-08-28 15:19:00,89.0,50.6,30.06,West,270,5.0,14.0,27,0.00,,,0.00,Weather View 32 v70,2013-08-28 21:19:00,
2013-08-28 15:24:00,89.0,47.4,30.06,West,270,2.0,14.0,24,0.00,,,0.00,Weather View 32 v70,2013-08-28 21:24:00,
2013-08-28 15:29:00,90.0,44.7,30.06,SW,225,8.0,14.0,21,0.00,,,0.00,Weather View 32 v70,2013-08-28 21:29:00,
2013-08-28 15:34:00,90.0,43.4,30.06,West,270,5.0,14.0,20,0.00,,,0.00,Weather View 32 v70,2013-08-28 21:34:00,
2013-08-28 15:39:00,90.0,40.7,30.06,WSW,247,1.0,14.0,18,0.00,,,0.00,Weather View 32 v70,2013-08-28 21:39:00,
2013-08-28 15:44:00,91.0,42.9,30.06,WNW,292,5.0,14.0,19,0.00,,,0.00,Weather View 32 v70,2013-08-28 21:44:00,
2013-08-28 15:49:00,91.0,42.9,30.05,SW,225,10.0,14.0,19,0.00,,,0.00,Weather View 32 v70,2013-08-28 21:49:00,
2013-08-28 15:54:00,90.0,40.7,30.05,SW,225,10.0,14.0,18,0.00,,,0.00,Weather View 32 v70,2013-08-28 21:54:00,
2013-08-28 15:59:00,90.0,40.7,30.05,SW,225,8.0,14.0,18,0.00,,,0.00,Weather View 32 v70,2013-08-28 21:59:00,
2013-08-28 16:05:00,90.0,37.6,30.05,SW,225,4.0,14.0,16,0.00,,,0.00,Weather View 32 v70,2013-08-28 22:05:00,
2013-08-28 16:10:00,91.0,38.4,30.04,South,180,5.0,14.0,16,0.00,,,0.00,Weather View 32 v70,2013-08-28 22:10:00,
2013-08-28 16:15:00,91.0,38.4,30.04,South,180,5.0,14.0,16,0.00,,,0.00,Weather View 32 v70,2013-08-28 22:15:00,
2013-08-28 16:19:00,91.0,40.0,30.04,West,270,5.0,14.0,17,0.00,,,0.00,Weather View 32 v70,2013-08-28 22:19:00,
2013-08-28 16:24:00,91.0,38.4,30.04,South,180,5.0,14.0,16,0.00,,,0.00,Weather View 32 v70,2013-08-28 22:24:00,
2013-08-28 16:29:00,91.0,38.4,30.04,South,180,3.0,14.0,16,0.00,,,0.00,Weather View 32 v70,2013-08-28 22:29:00,
2013-08-28 16:34:00,91.0,38.4,30.04,WNW,292,3.0,14.0,16,0.00,,,0.00,Weather View 32 v70,2013-08-28 22:34:00,
2013-08-28 16:39:00,91.0,36.8,30.03,SW,225,7.0,14.0,15,0.00,,,0.00,Weather View 32 v70,2013-08-28 22:39:00,
2013-08-28 16:44:00,91.0,40.0,30.03,NW,315,6.0,14.0,17,0.00,,,0.00,Weather View 32 v70,2013-08-28 22:44:00,
2013-08-28 16:49:00,91.0,41.5,30.04,West,270,6.0,13.0,18,0.00,,,0.00,Weather View 32 v70,2013-08-28 22:49:00,
2013-08-28 16:54:00,91.0,38.4,30.04,South,180,7.0,13.0,16,0.00,,,0.00,Weather View 32 v70,2013-08-28 22:54:00,
2013-08-28 16:59:00,91.0,38.4,30.04,South,180,5.0,13.0,16,0.00,,,0.00,Weather View 32 v70,2013-08-28 22:59:00,
2013-08-28 17:04:00,91.0,38.4,30.04,WSW,247,11.0,13.0,16,0.00,,,0.00,Weather View 32 v70,2013-08-28 23:04:00,
2013-08-28 17:09:00,91.0,40.0,30.03,West,270,2.0,13.0,17,0.00,,,0.00,Weather View 32 v70,2013-08-28 23:09:00,
2013-08-28 17:14:00,91.0,38.4,30.03,SW,225,3.0,13.0,16,0.00,,,0.00,Weather View 32 v70,2013-08-28 23:14:00,
2013-08-28 17:19:00,91.0,38.4,30.03,SW,225,7.0,13.0,16,0.00,,,0.00,Weather View 32 v70,2013-08-28 23:19:00,
2013-08-28 17:24:00,90.0,40.7,30.03,SW,225,10.0,13.0,18,0.00,,,0.00,Weather View 32 v70,2013-08-28 23:24:00,
2013-08-28 17:29:00,90.0,43.4,30.04,West,270,6.0,13.0,20,0.00,,,0.00,Weather View 32 v70,2013-08-28 23:29:00,
2013-08-28 17:34:00,90.0,43.4,30.04,WNW,292,4.0,13.0,20,0.00,,,0.00,Weather View 32 v70,2013-08-28 23:34:00,
2013-08-28 17:39:00,90.0,45.9,30.04,West,270,3.0,13.0,22,0.00,,,0.00,Weather View 32 v70,2013-08-28 23:39:00,
2013-08-28 17:44:00,89.0,42.6,30.04,WSW,247,6.0,12.0,20,0.00,,,0.00,Weather View 32 v70,2013-08-28 23:44:00,
2013-08-28 17:49:00,89.0,39.9,30.04,SW,225,6.0,12.0,18,0.00,,,0.00,Weather View 32 v70,2013-08-28 23:49:00,
2013-08-28 17:54:00,89.0,43.9,30.04,SW,225,4.0,12.0,21,0.00,,,0.00,Weather View 32 v70,2013-08-28 23:54:00,
2013-08-28 17:59:00,89.0,42.6,30.04,SW,225,4.0,12.0,20,0.00,,,0.00,Weather View 32 v70,2013-08-28 23:59:00,
2013-08-28 18:04:00,89.0,42.6,30.04,SW,225,6.0,12.0,20,0.00,,,0.00,Weather View 32 v70,2013-08-29 00:04:00,
2013-08-28 18:09:00,89.0,42.6,30.04,WSW,247,6.0,12.0,20,0.00,,,0.00,Weather View 32 v70,2013-08-29 00:09:00,
2013-08-28 18:14:00,89.0,45.1,30.04,WSW,247,3.0,12.0,22,0.00,,,0.00,Weather View 32 v70,2013-08-29 00:14:00,
2013-08-28 18:19:00,88.0,41.8,30.05,SW,225,5.0,11.0,20,0.00,,,0.00,Weather View 32 v70,2013-08-29 00:19:00,
2013-08-28 18:24:00,88.0,41.8,30.05,SW,225,7.0,11.0,20,0.00,,,0.00,Weather View 32 v70,2013-08-29 00:24:00,
2013-08-28 18:29:00,88.0,43.0,30.04,West,270,4.0,11.0,21,0.00,,,0.00,Weather View 32 v70,2013-08-29 00:29:00,
2013-08-28 18:34:00,88.0,44.3,30.04,West,270,2.0,11.0,22,0.00,,,0.00,Weather View 32 v70,2013-08-29 00:34:00,
2013-08-28 18:39:00,88.0,41.8,30.05,West,270,3.0,11.0,20,0.00,,,0.00,Weather View 32 v70,2013-08-29 00:39:00,
2013-08-28 18:44:00,87.0,41.0,30.05,SW,225,8.0,11.0,20,0.00,,,0.00,Weather View 32 v70,2013-08-29 00:44:00,
2013-08-28 18:49:00,87.0,42.2,30.06,SW,225,2.0,11.0,21,0.00,,,0.00,Weather View 32 v70,2013-08-29 00:49:00,
2013-08-28 18:54:00,87.0,43.4,30.06,West,270,2.0,11.0,22,0.00,,,0.00,Weather View 32 v70,2013-08-29 00:54:00,
2013-08-28 18:59:00,86.0,42.6,30.06,WSW,247,1.0,11.0,22,0.00,,,0.00,Weather View 32 v70,2013-08-29 00:59:00,
2013-08-28 19:04:00,86.0,42.6,30.06,West,270,4.0,11.0,22,0.00,,,0.00,Weather View 32 v70,2013-08-29 01:04:00,
2013-08-28 19:09:00,86.0,42.6,30.06,NW,315,5.0,11.0,22,0.00,,,0.00,Weather View 32 v70,2013-08-29 01:09:00,
2013-08-28 19:14:00,85.0,44.1,30.06,West,270,4.0,11.0,24,0.00,,,0.00,Weather View 32 v70,2013-08-29 01:14:00,
2013-08-28 19:19:00,85.0,44.1,30.07,West,270,6.0,11.0,24,0.00,,,0.00,Weather View 32 v70,2013-08-29 01:19:00,
2013-08-28 19:24:00,85.0,44.1,30.07,WSW,247,6.0,11.0,24,0.00,,,0.00,Weather View 32 v70,2013-08-29 01:24:00,
2013-08-28 19:29:00,84.0,44.3,30.07,WSW,247,1.0,10.0,25,0.00,,,0.00,Weather View 32 v70,2013-08-29 01:29:00,
2013-08-28 19:34:00,84.0,44.3,30.07,SW,225,5.0,10.0,25,0.00,,,0.00,Weather View 32 v70,2013-08-29 01:34:00,
2013-08-28 19:39:00,83.0,45.5,30.08,West,270,3.0,10.0,27,0.00,,,0.00,Weather View 32 v70,2013-08-29 01:39:00,
2013-08-28 19:44:00,82.0,44.6,30.08,West,270,3.0,10.0,27,0.00,,,0.00,Weather View 32 v70,2013-08-29 01:44:00,
2013-08-28 19:49:00,82.0,44.6,30.08,WNW,292,4.0,10.0,27,0.00,,,0.00,Weather View 32 v70,2013-08-29 01:49:00,
2013-08-28 19:54:00,81.0,45.7,30.08,West,270,3.0,10.0,29,0.00,,,0.00,Weather View 32 v70,2013-08-29 01:54:00,
2013-08-28 19:59:00,81.0,44.7,30.09,West,270,5.0,10.0,28,0.00,,,0.00,Weather View 32 v70,2013-08-29 01:59:00,
2013-08-28 20:04:00,80.0,44.8,30.09,West,270,4.0,10.0,29,0.00,,,0.00,Weather View 32 v70,2013-08-29 02:04:00,
2013-08-28 20:09:00,80.0,44.8,30.09,West,270,3.0,10.0,29,0.00,,,0.00,Weather View 32 v70,2013-08-29 02:09:00,
2013-08-28 20:14:00,80.0,44.8,30.09,West,270,6.0,9.0,29,0.00,,,0.00,Weather View 32 v70,2013-08-29 02:14:00,
2013-08-28 20:20:00,79.0,43.9,30.09,West,270,4.0,9.0,29,0.00,,,0.00,Weather View 32 v70,2013-08-29 02:20:00,
2013-08-28 20:25:00,79.0,44.8,30.09,West,270,4.0,9.0,30,0.00,,,0.00,Weather View 32 v70,2013-08-29 02:25:00,
2013-08-28 20:30:00,79.0,45.7,30.10,NW,315,5.0,9.0,31,0.00,,,0.00,Weather View 32 v70,2013-08-29 02:30:00,
2013-08-28 20:35:00,79.0,45.7,30.10,NW,315,3.0,9.0,31,0.00,,,0.00,Weather View 32 v70,2013-08-29 02:35:00,
2013-08-28 20:40:00,78.0,44.0,30.10,WNW,292,3.0,9.0,30,0.00,,,0.00,Weather View 32 v70,2013-08-29 02:40:00,
2013-08-28 20:45:00,78.0,44.0,30.10,NW,315,3.0,9.0,30,0.00,,,0.00,Weather View 32 v70,2013-08-29 02:45:00,
2013-08-28 20:50:00,78.0,44.0,30.10,West,270,4.0,8.0,30,0.00,,,0.00,Weather View 32 v70,2013-08-29 02:50:00,
2013-08-28 20:55:00,78.0,44.0,30.10,WNW,292,5.0,8.0,30,0.00,,,0.00,Weather View 32 v70,2013-08-29 02:55:00,
2013-08-28 21:00:00,77.0,43.1,30.11,WNW,292,3.0,8.0,30,0.00,,,0.00,Weather View 32 v70,2013-08-29 03:00:00,
2013-08-28 21:05:00,77.0,44.8,30.11,WNW,292,3.0,8.0,32,0.00,,,0.00,Weather View 32 v70,2013-08-29 03:05:00,
2013-08-28 21:10:00,77.0,43.1,30.11,WNW,292,3.0,7.0,30,0.00,,,0.00,Weather View 32 v70,2013-08-29 03:10:00,
2013-08-28 21:15:00,77.0,43.1,30.11,West,270,4.0,8.0,30,0.00,,,0.00,Weather View 32 v70,2013-08-29 03:15:00,
2013-08-28 21:20:00,77.0,44.8,30.11,West,270,4.0,8.0,32,0.00,,,0.00,Weather View 32 v70,2013-08-29 03:20:00,
2013-08-28 21:25:00,76.0,43.9,30.11,WNW,292,3.0,8.0,32,0.00,,,0.00,Weather View 32 v70,2013-08-29 03:25:00,
2013-08-28 21:30:00,76.0,43.9,30.12,WNW,292,3.0,8.0,32,0.00,,,0.00,Weather View 32 v70,2013-08-29 03:30:00,
2013-08-28 21:35:00,76.0,44.7,30.12,WNW,292,3.0,8.0,33,0.00,,,0.00,Weather View 32 v70,2013-08-29 03:35:00,
2013-08-28 21:40:00,76.0,45.5,30.12,WNW,292,0.0,8.0,34,0.00,,,0.00,Weather View 32 v70,2013-08-29 03:40:00,
2013-08-28 21:45:00,76.0,45.5,30.12,WNW,292,1.0,8.0,34,0.00,,,0.00,Weather View 32 v70,2013-08-29 03:45:00,
2013-08-28 21:50:00,75.0,44.6,30.13,WNW,292,1.0,8.0,34,0.00,,,0.00,Weather View 32 v70,2013-08-29 03:50:00,
2013-08-28 21:55:00,75.0,43.9,30.13,WNW,292,3.0,8.0,33,0.00,,,0.00,Weather View 32 v70,2013-08-29 03:55:00,
2013-08-28 22:00:00,75.0,45.4,30.13,NW,315,4.0,8.0,35,0.00,,,0.00,Weather View 32 v70,2013-08-29 04:00:00,
2013-08-28 22:01:00,75.0,43.9,30.13,NW,315,3.0,8.0,33,0.00,,,0.00,Weather View 32 v70,2013-08-29 04:01:00,
2013-08-28 22:06:00,75.0,43.9,30.13,NW,315,4.0,8.0,33,0.00,,,0.00,Weather View 32 v70,2013-08-29 04:06:00,
2013-08-28 22:11:00,76.0,47.0,30.13,WSW,247,3.0,8.0,36,0.00,,,0.00,Weather View 32 v70,2013-08-29 04:11:00,
2013-08-28 22:16:00,75.0,46.9,30.13,WSW,247,4.0,7.0,37,0.00,,,0.00,Weather View 32 v70,2013-08-29 04:16:00,
2013-08-28 22:21:00,75.0,47.6,30.14,WSW,247,3.0,7.0,38,0.00,,,0.00,Weather View 32 v70,2013-08-29 04:21:00,
2013-08-28 22:26:00,75.0,47.6,30.14,WSW,247,2.0,7.0,38,0.00,,,0.00,Weather View 32 v70,2013-08-29 04:26:00,
2013-08-28 22:31:00,74.0,47.4,30.14,WSW,247,0.0,7.0,39,0.00,,,0.00,Weather View 32 v70,2013-08-29 04:31:00,
2013-08-28 22:35:00,74.0,47.4,30.14,WSW,247,1.0,7.0,39,0.00,,,0.00,Weather View 32 v70,2013-08-29 04:35:00,
2013-08-28 22:40:00,74.0,47.4,30.14,WSW,247,3.0,7.0,39,0.00,,,0.00,Weather View 32 v70,2013-08-29 04:40:00,
2013-08-28 22:45:00,74.0,48.1,30.14,WSW,247,3.0,7.0,40,0.00,,,0.00,Weather View 32 v70,2013-08-29 04:45:00,
2013-08-28 22:50:00,73.0,47.2,30.14,WSW,247,1.0,7.0,40,0.00,,,0.00,Weather View 32 v70,2013-08-29 04:50:00,
2013-08-28 22:55:00,73.0,47.2,30.14,WNW,292,3.0,7.0,40,0.00,,,0.00,Weather View 32 v70,2013-08-29 04:55:00,
2013-08-28 23:00:00,73.0,47.2,30.15,WNW,292,1.0,7.0,40,0.00,,,0.00,Weather View 32 v70,2013-08-29 05:00:00,
2013-08-28 23:05:00,73.0,47.2,30.15,WNW,292,1.0,6.0,40,0.00,,,0.00,Weather View 32 v70,2013-08-29 05:05:00,
2013-08-28 23:11:00,73.0,47.2,30.15,WNW,292,0.0,6.0,40,0.00,,,0.00,Weather View 32 v70,2013-08-29 05:11:00,
2013-08-28 23:16:00,73.0,47.8,30.15,WNW,292,3.0,5.0,41,0.00,,,0.00,Weather View 32 v70,2013-08-29 05:16:00,
2013-08-28 23:21:00,73.0,47.8,30.15,WNW,292,0.0,5.0,41,0.00,,,0.00,Weather View 32 v70,2013-08-29 05:21:00,
2013-08-28 23:26:00,73.0,47.8,30.15,WNW,292,0.0,5.0,41,0.00,,,0.00,Weather View 32 v70,2013-08-29 05:26:00,
2013-08-28 23:31:00,73.0,48.5,30.15,WNW,292,0.0,5.0,42,0.00,,,0.00,Weather View 32 v70,2013-08-29 05:31:00,
2013-08-28 23:36:00,73.0,49.1,30.15,WNW,292,0.0,5.0,43,0.00,,,0.00,Weather View 32 v70,2013-08-29 05:36:00,
2013-08-28 23:41:00,73.0,49.1,30.15,WNW,292,0.0,5.0,43,0.00,,,0.00,Weather View 32 v70,2013-08-29 05:41:00,
2013-08-28 23:46:00,73.0,49.7,30.15,WNW,292,0.0,5.0,44,0.00,,,0.00,Weather View 32 v70,2013-08-29 05:46:00,
2013-08-28 23:51:00,73.0,50.9,30.16,SE,135,6.0,7.0,46,0.00,,,0.00,Weather View 32 v70,2013-08-29 05:51:00,
2013-08-28 23:56:00,72.0,50.0,30.16,East,90,9.0,10.0,46,0.00,,,0.00,Weather View 32 v70,2013-08-29 05:56:00,